Weather History for Creston, IA

Change the Weather History Date:

Tuesday, October 22, 2013

  Actual Average Record
Temperature  
Mean Temperature 38 °F -  
Max Temperature 44 °F 63 °F 79 °F (1963)
Min Temperature 33 °F 41 °F 17 °F (1981)
Degree Days  
Heating Degree Days 26    
Moisture  
Dew Point 35 °F    
Average Humidity 84    
Maximum Humidity 100    
Minimum Humidity 66    
Precipitation  
Precipitation 0.01 in - - ()
Sea Level Pressure  
Sea Level Pressure 29.95 in    
Wind  
Wind Speed 7 mph (NNW)    
Max Wind Speed 16 mph    
Max Gust Speed 21 mph    
Visibility 10 miles    
Events Rain    
Averages and records for this station are not official NWS values.
T = Trace of Precipitation, MM = Missing Value Source: NWS Daily Summary

Daily Weather History Graph

Daily Weather History Graph

Search for Another Location

Airport:

Trip Planner

Search our weather history database for the weather conditions in past years. The results will help you decide how hot, cold, wet, or windy it might be!

Date:

Astronomy

Oct. 22, 2013 Rise Set
Actual Time 7:37 AM CDT 6:26 PM CDT
Civil Twilight 7:09 AM CDT 6:54 PM CDT
Nautical Twilight 6:36 AM CDT 7:26 PM CDT
Astronomical Twilight 6:05 AM CDT 7:57 PM CDT
Moon 9:05 PM CDT (10/22) 11:07 AM CDT (10/22)
Length of Visible Light 11h 45m
Length of Day
10h 49m
Waning Gibbous, 86% of the Moon is Illuminated
Oct 22
Waning Gibbous
Oct 26
Last Quarter
Nov 3
New
Nov 9
First Quarter
Nov 17
Full

Hourly Weather History & Observations

Time (CDT) Temp. Windchill Dew Point Humidity Pressure Visibility Wind Dir Wind Speed Gust Speed Precip Events Conditions
12:15 AM 42.8 °F 39.3 °F 32.0 °F 66% 29.96 in 10.0 mi SSE 5.8 mph - N/A   Overcast
12:35 AM 42.8 °F 39.3 °F 32.0 °F 66% 29.96 in 10.0 mi SSE 5.8 mph - N/A   Overcast
12:55 AM 42.8 °F 39.3 °F 32.0 °F 66% 29.96 in 10.0 mi SE 5.8 mph - N/A   Overcast
1:15 AM 42.8 °F 38.6 °F 32.0 °F 66% 29.95 in 10.0 mi SE 6.9 mph - N/A   Overcast
1:35 AM 42.8 °F 38.6 °F 32.0 °F 66% 29.94 in 10.0 mi SE 6.9 mph - N/A   Overcast
1:55 AM 42.8 °F 38.6 °F 32.0 °F 66% 29.93 in 10.0 mi SSE 6.9 mph - N/A   Overcast
2:15 AM 42.8 °F 38.6 °F 33.8 °F 70% 29.92 in 10.0 mi SE 6.9 mph - N/A   Overcast
2:35 AM 42.8 °F 38.6 °F 33.8 °F 70% 29.91 in 10.0 mi SSE 6.9 mph - N/A   Overcast
2:55 AM 42.8 °F 38.6 °F 33.8 °F 70% 29.91 in 10.0 mi SSE 6.9 mph - N/A   Overcast
3:15 AM 42.8 °F 39.3 °F 33.8 °F 70% 29.89 in 10.0 mi SSE 5.8 mph - N/A   Overcast
3:35 AM 42.8 °F 39.3 °F 33.8 °F 70% 29.89 in 10.0 mi SSE 5.8 mph - N/A   Overcast
3:55 AM 42.8 °F 38.6 °F 33.8 °F 70% 29.87 in 10.0 mi SSE 6.9 mph - N/A   Overcast
4:15 AM 42.8 °F 38.0 °F 33.8 °F 70% 29.86 in 10.0 mi SSE 8.1 mph - N/A   Overcast
4:35 AM 42.8 °F 38.6 °F 35.6 °F 76% 29.85 in 10.0 mi SSE 6.9 mph - N/A   Overcast
4:55 AM 42.8 °F 39.3 °F 35.6 °F 76% 29.85 in 10.0 mi South 5.8 mph - N/A   Overcast
5:15 AM 42.8 °F 40.1 °F 35.6 °F 76% 29.86 in 10.0 mi SSW 4.6 mph - N/A   Overcast
5:35 AM 42.8 °F - 35.6 °F 76% 29.86 in 10.0 mi Calm Calm - N/A   Light Drizzle
5:55 AM 41.0 °F 36.4 °F 37.4 °F 87% 29.84 in 7.0 mi South 6.9 mph - N/A   Light Drizzle
6:15 AM 41.0 °F - 37.4 °F 87% 29.84 in 10.0 mi Calm Calm - N/A   Overcast
6:35 AM 41.0 °F 39.0 °F 37.4 °F 87% 29.84 in 10.0 mi ENE 3.5 mph - N/A   Overcast
6:55 AM 41.0 °F - 39.2 °F 93% 29.84 in 10.0 mi Calm Calm - N/A   Overcast
7:15 AM 41.0 °F - 39.2 °F 93% 29.84 in 10.0 mi Calm Calm - N/A   Overcast
7:35 AM 39.2 °F - 39.2 °F 100% 29.84 in 10.0 mi Calm Calm - N/A   Overcast
7:55 AM 41.0 °F - 37.4 °F 87% 29.84 in 10.0 mi Calm Calm - N/A   Overcast
8:15 AM 41.0 °F - 39.2 °F 93% 29.84 in 10.0 mi Calm Calm - N/A   Overcast
8:35 AM 41.0 °F - 39.2 °F 93% 29.84 in 10.0 mi Calm Calm - N/A   Overcast
8:55 AM 41.0 °F - 39.2 °F 93% 29.85 in 10.0 mi Calm Calm - N/A   Overcast
9:15 AM 42.8 °F 36.2 °F 39.2 °F 87% 29.88 in 10.0 mi NW 12.7 mph - N/A   Overcast
9:35 AM 41.0 °F 35.2 °F 39.2 °F 93% 29.88 in 3.0 mi NNW 9.2 mph - N/A   Light Drizzle
9:55 AM 41.0 °F 36.4 °F 39.2 °F 93% 29.87 in 10.0 mi North 6.9 mph - N/A   Light Drizzle
10:15 AM 41.0 °F 36.4 °F 39.2 °F 93% 29.88 in 7.0 mi NNW 6.9 mph - N/A   Light Drizzle
10:35 AM 41.0 °F 35.8 °F 39.2 °F 93% 29.88 in 10.0 mi NNW 8.1 mph - N/A   Scattered Clouds
10:55 AM 41.0 °F 34.7 °F 39.2 °F 93% 29.89 in 6.0 mi NNW 10.4 mph - N/A   Light Drizzle
11:15 AM 42.8 °F 37.5 °F 39.2 °F 87% 29.90 in 10.0 mi NNW 9.2 mph - N/A   Mostly Cloudy
11:35 AM 42.8 °F 36.2 °F 41.0 °F 93% 29.91 in 10.0 mi NNW 12.7 mph - N/A   Overcast
11:55 AM 42.8 °F 35.8 °F 41.0 °F 93% 29.91 in 4.0 mi NNW 13.8 mph - 0.01 in Rain Light Rain
12:15 PM 44.6 °F 38.1 °F 41.0 °F 87% 29.92 in 10.0 mi NNW 13.8 mph - N/A   Light Drizzle
12:35 PM 44.6 °F 37.4 °F 39.2 °F 81% 29.93 in 10.0 mi North 16.1 mph - N/A   Overcast
12:55 PM 44.6 °F 38.1 °F 39.2 °F 81% 29.93 in 10.0 mi North 13.8 mph - N/A   Overcast
1:15 PM 42.8 °F 35.1 °F 39.2 °F 87% 29.93 in 7.0 mi North 16.1 mph - N/A   Light Drizzle
1:35 PM 42.8 °F 35.4 °F 39.2 °F 87% 29.93 in 8.0 mi North 15.0 mph - N/A   Overcast
1:55 PM 41.0 °F 32.8 °F 39.2 °F 93% 29.94 in 9.0 mi North 16.1 mph - N/A   Overcast
2:15 PM 41.0 °F 32.8 °F 37.4 °F 87% 29.95 in 9.0 mi NNW 16.1 mph - N/A   Overcast
2:35 PM 39.2 °F 31.2 °F 37.4 °F 93% 29.96 in 10.0 mi North 13.8 mph 20.7 mph N/A   Overcast
2:55 PM 39.2 °F 32.0 °F 35.6 °F 87% 29.97 in 10.0 mi North 11.5 mph 19.6 mph N/A   Overcast
3:15 PM 39.2 °F 30.8 °F 35.6 °F 87% 29.98 in 10.0 mi North 15.0 mph - N/A   Overcast
3:35 PM 39.2 °F 31.6 °F 35.6 °F 87% 29.99 in 10.0 mi North 12.7 mph 18.4 mph N/A   Overcast
4:15 PM 39.2 °F 31.6 °F 33.8 °F 81% 30.00 in 10.0 mi North 12.7 mph - N/A   Overcast
4:35 PM 39.2 °F 30.8 °F 33.8 °F 81% 30.01 in 10.0 mi North 15.0 mph - N/A   Overcast
4:55 PM 39.2 °F 31.6 °F 33.8 °F 81% 30.02 in 10.0 mi NNW 12.7 mph 18.4 mph N/A   Overcast
5:15 PM 39.2 °F 32.5 °F 33.8 °F 81% 30.03 in 10.0 mi NNW 10.4 mph 16.1 mph N/A   Overcast
5:35 PM 39.2 °F 32.5 °F 33.8 °F 81% 30.04 in 10.0 mi NNW 10.4 mph 19.6 mph N/A   Overcast
5:55 PM 39.2 °F 33.6 °F 33.8 °F 81% 30.04 in 10.0 mi NNW 8.1 mph 15.0 mph N/A   Overcast
6:15 PM 39.2 °F 31.6 °F 33.8 °F 81% 30.05 in 10.0 mi NNW 12.7 mph 18.4 mph N/A   Overcast
6:35 PM 37.4 °F 30.8 °F 33.8 °F 87% 30.05 in 10.0 mi NW 9.2 mph - N/A   Overcast
6:55 PM 37.4 °F 31.4 °F 33.8 °F 87% 30.05 in 10.0 mi NW 8.1 mph - N/A   Overcast
7:15 PM 37.4 °F 32.1 °F 33.8 °F 87% 30.06 in 10.0 mi WNW 6.9 mph - N/A   Overcast
7:35 PM 37.4 °F 32.1 °F 33.8 °F 87% 30.06 in 10.0 mi NW 6.9 mph - N/A   Overcast
7:55 PM 37.4 °F 31.4 °F 33.8 °F 87% 30.07 in 10.0 mi WNW 8.1 mph - N/A   Overcast
8:15 PM 37.4 °F 31.4 °F 33.8 °F 87% 30.06 in 10.0 mi NW 8.1 mph - N/A   Overcast
8:35 PM 35.6 °F 29.2 °F 32.0 °F 87% 30.07 in 10.0 mi NW 8.1 mph - N/A   Overcast
8:55 PM 35.6 °F 29.2 °F 32.0 °F 87% 30.07 in 10.0 mi WNW 8.1 mph - N/A   Mostly Cloudy
9:35 PM 33.8 °F 27.0 °F 30.2 °F 87% 30.08 in 10.0 mi NW 8.1 mph - N/A   Clear
10:15 PM 33.8 °F 27.0 °F 30.2 °F 87% 30.08 in 10.0 mi NW 8.1 mph - N/A   Mostly Cloudy
10:35 PM 33.8 °F 27.0 °F 32.0 °F 93% 30.09 in 10.0 mi NW 8.1 mph - N/A   Overcast
10:55 PM 35.6 °F 29.2 °F 32.0 °F 87% 30.08 in 10.0 mi NW 8.1 mph - N/A   Overcast
11:15 PM 33.8 °F 27.0 °F 30.2 °F 87% 30.08 in 10.0 mi NW 8.1 mph - N/A   Overcast
11:35 PM 33.8 °F 27.0 °F 30.2 °F 87% 30.08 in 10.0 mi NW 8.1 mph - N/A   Overcast
11:55 PM 33.8 °F 27.0 °F 30.2 °F 87% 30.08 in 10.0 mi NW 8.1 mph - N/A   Overcast